Location: Dealu Mare
(46.0500°N, 22.8167°E)
Time: 22:00:58
(UTC+00:00)

Cosmos 1758 - Pass Details

Date: 15 January 2026
Orbit: 479 x 500 km, 82.5° (Epoch: 13 February)

Event Time Altitude Azimuth Distance (km) Brightness Sun altitude
Rises 05:02:34 0° 210° (SSW) 2,579 6.6 -11.0°
Reaches altitude 10° 05:04:50 10° 220° (SW) 1,698 5.6 -10.6°
Maximum altitude 05:08:12 32° 285° (WNW) 880 3.8 -10.1°
Drops below altitude 10° 05:11:34 10° 350° (N) 1,700 5.5 -9.5°
Sets 05:13:51 0° 1° (N) 2,584 6.5 -9.1°
